Time,TemperatureF,DewpointF,PressureIn,WindDirection,WindDirectionDegrees,WindSpeedMPH,WindSpeedGustMPH,Humidity,HourlyPrecipIn,Conditions,Clouds,dailyrainin,SoftwareType,DateUTC
2013-07-09 10:05:00,79.4,76.0,30.21,NE,46,5.0,10.0,89,0.00,,,0.00,weatherlink.com 1.10,2013-07-09 14:05:00,
2013-07-09 10:19:00,79.7,76.0,30.21,NNE,30,10.0,14.0,87,0.00,,,0.00,weatherlink.com 1.10,2013-07-09 14:19:00,
2013-07-09 10:35:00,79.9,76.0,30.21,NE,43,11.0,15.0,87,0.00,,,0.00,weatherlink.com 1.10,2013-07-09 14:35:00,
2013-07-09 10:50:00,80.4,76.0,30.21,ENE,63,5.0,12.0,87,0.00,,,0.00,weatherlink.com 1.10,2013-07-09 14:50:00,
2013-07-09 11:05:00,79.8,75.0,30.20,NE,47,5.0,13.0,85,0.00,,,0.00,weatherlink.com 1.10,2013-07-09 15:05:00,
2013-07-09 11:20:00,79.3,74.0,30.20,ENE,60,10.0,14.0,83,0.00,,,0.00,weatherlink.com 1.10,2013-07-09 15:20:00,
2013-07-09 11:35:00,79.7,75.0,30.19,ENE,63,6.0,11.0,85,0.00,,,0.00,weatherlink.com 1.10,2013-07-09 15:35:00,
2013-07-09 11:50:00,79.6,75.0,30.18,NE,56,3.0,12.0,86,0.00,,,0.00,weatherlink.com 1.10,2013-07-09 15:50:00,
2013-07-09 12:05:00,79.9,75.0,30.18,ENE,72,6.0,8.0,85,0.00,,,0.00,weatherlink.com 1.10,2013-07-09 16:05:00,
2013-07-09 12:20:00,79.4,75.0,30.18,NE,53,7.0,11.0,86,0.00,,,0.00,weatherlink.com 1.10,2013-07-09 16:20:00,
2013-07-09 12:35:00,80.0,76.0,30.18,ENE,63,3.0,8.0,86,0.00,,,0.00,weatherlink.com 1.10,2013-07-09 16:35:00,
2013-07-09 12:50:00,80.5,76.0,30.18,ENE,63,7.0,10.0,86,0.00,,,0.00,weatherlink.com 1.10,2013-07-09 16:50:00,
2013-07-09 13:05:00,80.9,76.0,30.18,ENE,66,7.0,11.0,86,0.00,,,0.00,weatherlink.com 1.10,2013-07-09 17:05:00,
2013-07-09 13:20:00,80.8,77.0,30.18,ENE,71,7.0,11.0,87,0.00,,,0.00,weatherlink.com 1.10,2013-07-09 17:20:00,
2013-07-09 13:35:00,81.2,77.0,30.18,ENE,65,9.0,12.0,86,0.00,,,0.00,weatherlink.com 1.10,2013-07-09 17:35:00,
2013-07-09 13:50:00,81.9,77.0,30.18,ENE,60,5.0,10.0,85,0.00,,,0.00,weatherlink.com 1.10,2013-07-09 17:50:00,
2013-07-09 14:05:00,82.2,77.0,30.18,ENE,73,12.0,12.0,83,0.00,,,0.00,weatherlink.com 1.10,2013-07-09 18:05:00,
2013-07-09 14:20:00,81.8,77.0,30.17,ENE,63,12.0,12.0,84,0.00,,,0.00,weatherlink.com 1.10,2013-07-09 18:20:00,
2013-07-09 14:35:00,81.7,77.0,30.17,NNE,18,6.0,12.0,85,0.00,,,0.00,weatherlink.com 1.10,2013-07-09 18:35:00,
2013-07-09 14:50:00,82.3,77.0,30.17,East,80,10.0,12.0,83,0.00,,,0.00,weatherlink.com 1.10,2013-07-09 18:50:00,
2013-07-09 15:05:00,81.3,76.0,30.16,ENE,58,7.0,15.0,84,0.00,,,0.00,weatherlink.com 1.10,2013-07-09 19:05:00,
2013-07-09 15:20:00,81.9,76.0,30.16,North,7,7.0,11.0,83,0.00,,,0.00,weatherlink.com 1.10,2013-07-09 19:20:00,
2013-07-09 15:35:00,81.2,76.0,30.15,NE,43,11.0,13.0,84,0.00,,,0.00,weatherlink.com 1.10,2013-07-09 19:35:00,
2013-07-09 15:50:00,80.6,76.0,30.15,NNE,27,10.0,15.0,86,0.00,,,0.00,weatherlink.com 1.10,2013-07-09 19:50:00,
2013-07-09 16:05:00,80.5,76.0,30.15,NNE,22,8.0,14.0,85,0.00,,,0.00,weatherlink.com 1.10,2013-07-09 20:05:00,
2013-07-09 16:20:00,81.3,76.0,30.15,NE,37,9.0,16.0,84,0.00,,,0.00,weatherlink.com 1.10,2013-07-09 20:20:00,
2013-07-09 16:35:00,81.7,77.0,30.14,North,360,10.0,18.0,84,0.00,,,0.00,weatherlink.com 1.10,2013-07-09 20:35:00,
2013-07-09 16:50:00,81.9,76.0,30.14,ENE,67,12.0,16.0,83,0.00,,,0.00,weatherlink.com 1.10,2013-07-09 20:50:00,
2013-07-09 17:05:00,81.7,77.0,30.14,North,8,8.0,12.0,84,0.00,,,0.00,weatherlink.com 1.10,2013-07-09 21:05:00,
2013-07-09 17:20:00,81.2,76.0,30.14,NNE,33,13.0,18.0,84,0.00,,,0.00,weatherlink.com 1.10,2013-07-09 21:20:00,
2013-07-09 17:35:00,80.4,76.0,30.13,NE,38,16.0,17.0,85,0.00,,,0.00,weatherlink.com 1.10,2013-07-09 21:35:00,
2013-07-09 17:50:00,79.7,76.0,30.13,NE,49,15.0,19.0,87,0.00,,,0.00,weatherlink.com 1.10,2013-07-09 21:50:00,
2013-07-09 18:05:00,80.3,76.0,30.13,NNE,29,8.0,14.0,87,0.00,,,0.00,weatherlink.com 1.10,2013-07-09 22:05:00,
2013-07-09 18:20:00,80.7,76.0,30.13,NE,36,11.0,16.0,85,0.00,,,0.00,weatherlink.com 1.10,2013-07-09 22:20:00,
2013-07-09 18:35:00,79.6,76.0,30.13,East,94,6.0,17.0,87,0.00,,,0.00,weatherlink.com 1.10,2013-07-09 22:35:00,
2013-07-09 18:50:00,79.3,75.0,30.14,ENE,72,7.0,15.0,87,0.00,,,0.00,weatherlink.com 1.10,2013-07-09 22:50:00,
2013-07-09 19:05:00,79.0,75.0,30.14,NE,51,14.0,16.0,87,0.00,,,0.00,weatherlink.com 1.10,2013-07-09 23:05:00,
2013-07-09 19:20:00,78.8,75.0,30.14,NE,55,11.0,15.0,87,0.00,,,0.00,weatherlink.com 1.10,2013-07-09 23:20:00,
2013-07-09 19:35:00,78.6,75.0,30.13,NE,50,10.0,15.0,87,0.00,,,0.00,weatherlink.com 1.10,2013-07-09 23:35:00,
2013-07-09 19:50:00,78.6,75.0,30.13,NNE,22,6.0,14.0,87,0.00,,,0.00,weatherlink.com 1.10,2013-07-09 23:50:00,
2013-07-09 20:05:00,78.5,74.0,30.13,NE,41,11.0,15.0,87,0.00,,,0.00,weatherlink.com 1.10,2013-07-10 00:05:00,
2013-07-09 20:20:00,78.4,75.0,30.13,ENE,57,9.0,12.0,88,0.00,,,0.00,weatherlink.com 1.10,2013-07-10 00:20:00,
2013-07-09 20:35:00,78.3,75.0,30.13,NE,46,8.0,14.0,88,0.00,,,0.00,weatherlink.com 1.10,2013-07-10 00:35:00,
2013-07-09 20:50:00,78.2,75.0,30.14,East,82,11.0,14.0,89,0.00,,,0.00,weatherlink.com 1.10,2013-07-10 00:50:00,
2013-07-09 21:05:00,78.1,75.0,30.14,ENE,58,11.0,15.0,89,0.00,,,0.00,weatherlink.com 1.10,2013-07-10 01:05:00,
2013-07-09 21:20:00,78.1,75.0,30.15,NE,47,7.0,15.0,90,0.00,,,0.00,weatherlink.com 1.10,2013-07-10 01:20:00,
2013-07-09 21:35:00,78.1,75.0,30.16,ENE,62,12.0,17.0,90,0.00,,,0.00,weatherlink.com 1.10,2013-07-10 01:35:00,
2013-07-09 21:50:00,78.0,75.0,30.16,ENE,73,9.0,14.0,91,0.00,,,0.00,weatherlink.com 1.10,2013-07-10 01:50:00,
2013-07-09 22:05:00,77.9,75.0,30.16,ENE,64,11.0,17.0,91,0.00,,,0.00,weatherlink.com 1.10,2013-07-10 02:05:00,
2013-07-09 22:20:00,77.9,75.0,30.15,NNE,15,11.0,13.0,91,0.00,,,0.00,weatherlink.com 1.10,2013-07-10 02:20:00,
2013-07-09 22:35:00,77.7,75.0,30.16,NE,45,6.0,13.0,91,0.00,,,0.00,weatherlink.com 1.10,2013-07-10 02:35:00,
2013-07-09 22:50:00,77.7,75.0,30.16,NE,39,7.0,14.0,91,0.00,,,0.00,weatherlink.com 1.10,2013-07-10 02:50:00,
2013-07-09 23:05:00,77.6,75.0,30.15,ENE,78,7.0,12.0,92,0.00,,,0.00,weatherlink.com 1.10,2013-07-10 03:05:00,
2013-07-09 23:20:00,77.5,75.0,30.15,ENE,72,7.0,11.0,92,0.00,,,0.00,weatherlink.com 1.10,2013-07-10 03:20:00,
2013-07-09 23:35:00,77.5,75.0,30.16,ENE,58,10.0,11.0,92,0.00,,,0.00,weatherlink.com 1.10,2013-07-10 03:35:00,
2013-07-09 23:51:00,77.4,75.0,30.16,ENE,60,7.0,9.0,92,0.00,,,0.00,weatherlink.com 1.10,2013-07-10 03:51:00,